Wind_Speed
31 32 32 32 32 31 31 31 31 31 30 30 30 29 29 29 29 29 28 27 26 24 23 23 24 25 27 29 30 29 31 33 33 31 31 30 29 28 27 25 23 22 21 20 19 19 18 18 18 18 19 19 19 19 19 20 20 20 19 19 19 19 18 18 18 18 17 16 16 15 15 14 15 15 15 16 16 16 17 17 17 18 18 18 19
28 28 29 30 30 30 31 31 32 32 32 32 32 31 31 31 31 31 30 29 27 26 25 25 25 26 27 29 30 30 31 33 34 32 31 31 30 29 28 26 25 24 22 21 20 20 20 20 20 20 21 20 20 20 20 20 21 21 21 21 21 21 21 21 21 20 20 19 18 18 17 17 17 17 17 17 18 18 18 18 18 19 19 20 21
27 25 26 26 26 27 29 30 31 32 33 33 33 33 32 32 32 32 32 31 30 29 27 27 27 27 29 30 31 31 31 33 35 34 32 31 31 31 29 28 27 26 24 23 22 22 21 21 21 22 22 22 21 21 21 21 21 22 22 23 23 23 23 23 23 22 22 22 21 20 20 19 19 19 19 19 20 20 20 20 20 20 20 21 23
29 27 26 25 24 25 26 27 28 30 31 32 33 33 33 34 34 33 33 32 31 30 29 29 29 29 30 31 32 32 31 33 35 35 33 32 32 32 31 29 29 28 27 25 24 23 22 22 22 23 23 23 23 22 22 22 22 22 23 23 23 24 24 24 24 24 24 24 23 23 23 22 21 22 21 21 22 22 22 22 22 22 22 22 23
31 29 27 26 26 27 26 26 26 27 27 28 29 30 32 33 32 32 32 32 31 30 30 30 31 31 32 32 32 32 32 33 35 35 34 33 33 33 32 31 30 29 29 28 26 25 24 23 23 24 24 24 24 24 23 23 23 23 23 23 24 25 26 26 25 25 25 25 25 24 24 24 24 24 24 23 23 24 24 25 25 24 25 25 24
32 30 29 28 29 29 28 27 27 26 25 26 26 27 28 28 28 27 28 28 29 30 30 31 32 32 32 33 33 33 33 33 35 36 35 34 34 34 34 33 32 31 30 30 29 27 25 24 24 25 25 24 24 24 24 24 24 23 23 23 24 25 26 26 25 25 25 25 26 26 25 25 25 26 26 25 24 24 25 25 26 26 26 26 25
34 32 30 30 30 30 30 29 28 27 26 26 26 26 26 26 25 24 24 26 28 29 30 31 32 33 33 33 34 34 34 34 35 37 36 36 36 36 36 35 34 33 32 31 30 29 27 26 25 25 26 25 25 25 24 24 24 24 23 23 23 24 25 26 25 24 24 25 26 26 26 26 26 26 26 26 25 25 25 25 27 28 28 28 27
35 34 32 31 32 32 31 29 28 28 28 27 27 27 26 26 25 24 24 25 26 28 29 30 31 33 34 34 35 36 35 35 36 37 37 37 37 37 37 36 35 34 34 33 32 30 29 27 26 26 27 26 26 26 25 25 25 24 23 21 22 23 24 26 26 24 25 25 26 27 26 26 26 26 27 27 27 26 26 26 27 28 30 30 29
37 36 34 33 32 32 32 30 29 30 30 29 29 29 28 27 26 26 25 24 25 26 27 29 31 33 34 35 36 36 37 36 36 37 38 38 38 38 38 37 36 36 35 34 34 32 31 29 28 28 28 28 28 27 27 26 25 25 24 22 21 22 24 26 26 24 24 26 27 27 28 27 27 27 28 28 28 27 27 27 27 28 30 32 32
37 37 36 34 34 34 33 32 31 32 32 31 30 30 29 29 28 27 26 25 25 25 26 28 30 32 34 36 36 37 38 38 36 37 37 38 39 39 39 39 38 37 37 36 36 35 34 32 31 30 30 29 29 29 28 27 25 25 26 24 23 23 24 25 26 25 24 25 26 27 28 28 27 25 26 27 27 27 26 26 27 29 31 32 32
37 37 36 35 35 35 34 33 34 34 33 32 31 31 30 30 29 28 27 26 26 25 26 28 29 31 33 35 36 38 38 38 37 36 37 38 40 40 41 40 40 39 39 38 38 37 36 35 33 33 32 31 30 30 29 28 27 27 28 27 25 24 25 26 26 25 24 24 24 25 26 27 26 24 25 26 27 27 27 28 28 29 31 32 32
35 36 36 37 37 36 36 36 36 35 35 34 32 32 31 31 31 30 29 28 27 26 27 27 28 30 32 33 35 37 37 37 37 37 37 39 40 41 42 42 42 41 41 41 40 39 38 37 36 36 35 34 33 32 31 29 28 28 29 29 27 26 26 26 25 25 25 25 24 24 24 25 24 24 25 27 28 29 29 30 29 29 31 31 30
34 35 36 37 37 37 37 37 37 37 37 36 34 33 33 32 32 32 31 30 29 29 29 28 28 29 31 32 34 36 37 38 37 37 38 39 41 43 44 44 44 43 43 43 42 41 40 39 39 39 38 36 35 35 33 30 30 30 30 29 28 27 26 26 25 24 24 25 25 25 24 24 24 25 25 26 28 29 30 30 29 29 30 30 27
33 34 35 36 36 37 37 38 38 38 38 37 36 35 34 34 33 33 33 33 33 32 32 31 30 31 32 33 34 35 36 37 37 38 39 40 41 43 45 45 45 45 45 45 44 43 42 42 42 41 40 38 38 37 35 32 32 33 32 30 28 27 26 26 26 24 24 25 26 25 24 25 26 27 28 28 27 28 28 28 28 29 30 28 25
32 33 33 34 35 36 36 37 38 38 38 38 37 37 36 35 35 35 36 36 36 36 34 34 33 33 34 35 36 36 36 36 36 38 39 40 42 44 46 47 46 46 46 46 46 45 44 45 45 44 42 40 39 38 36 35 34 34 33 30 28 27 26 26 25 24 24 25 26 26 25 26 27 28 29 29 29 29 29 28 28 28 28 26 24
31 31 31 32 33 34 35 36 37 37 37 37 37 36 35 35 35 36 36 37 38 38 37 36 36 37 36 36 37 38 37 36 36 37 38 40 43 45 47 48 47 47 47 47 47 47 46 47 47 46 45 43 40 39 38 37 37 36 34 30 27 27 26 25 24 24 24 25 26 26 26 26 27 28 29 29 29 29 29 27 26 26 26 24 23
30 30 29 30 32 33 34 34 34 35 35 35 34 34 34 34 35 35 36 38 40 40 40 39 39 39 39 38 39 39 38 37 37 37 37 39 42 46 48 49 49 48 48 49 49 49 48 49 50 49 48 46 42 39 39 40 39 38 35 30 27 26 26 25 22 22 24 25 26 26 27 27 27 27 28 28 28 28 27 26 25 24 23 22 21
32 31 31 31 32 33 33 33 34 35 35 35 35 34 34 34 35 36 38 39 40 41 41 41 41 40 40 39 40 40 39 39 39 39 38 40 42 45 48 50 51 50 49 51 51 51 50 51 52 52 50 48 44 40 40 41 41 39 35 31 27 26 26 25 22 22 24 26 26 26 27 27 27 27 27 26 26 26 25 24 23 22 21 20 20
34 33 32 33 33 33 34 35 35 36 36 35 33 32 31 31 32 35 37 40 41 42 43 43 43 41 40 40 41 41 41 41 41 41 40 41 43 46 48 50 52 51 52 53 54 54 53 53 54 54 52 50 47 42 41 43 42 40 37 33 29 27 27 26 23 23 25 27 27 26 27 27 27 27 26 25 24 24 23 22 21 20 20 20 21
35 34 33 34 33 33 34 35 35 35 35 34 32 32 32 31 30 30 32 36 40 41 42 44 44 43 42 42 42 42 42 43 43 43 42 43 44 47 49 51 52 52 53 54 56 57 56 56 56 54 53 53 49 44 43 44 43 40 38 35 31 28 27 27 25 25 26 27 26 26 26 26 26 25 24 23 22 22 22 21 20 20 20 21 23
36 36 35 34 33 33 33 34 34 35 35 34 33 33 35 35 33 30 29 31 35 38 40 43 44 44 44 43 42 42 42 43 45 45 45 45 45 47 49 50 51 53 54 55 57 59 59 58 57 55 54 54 50 46 45 45 43 41 38 36 32 28 28 28 27 26 27 27 26 27 26 25 24 23 23 22 22 22 21 20 19 19 20 21 23
39 38 36 34 32 32 32 31 32 34 34 33 33 34 37 39 39 36 33 32 34 35 38 41 43 44 44 43 42 41 41 42 44 44 45 46 46 48 49 49 51 53 55 57 59 61 60 59 57 55 55 55 51 48 47 46 44 41 38 36 33 29 28 29 28 27 27 27 27 27 26 24 23 23 22 21 21 21 20 19 18 19 20 22 23
38 36 34 33 32 31 30 29 30 31 32 33 33 34 37 39 40 41 40 38 36 36 37 38 40 41 41 41 40 40 41 43 45 44 44 46 48 49 50 50 51 54 56 57 59 61 62 61 58 57 56 55 52 51 50 48 45 42 38 36 33 30 28 30 29 28 27 27 27 26 25 24 23 23 22 21 21 20 19 18 18 19 21 23 23
32 31 30 30 30 29 28 28 29 30 31 32 33 35 37 38 39 40 41 40 38 37 36 37 38 38 39 39 39 39 40 42 43 43 43 45 47 50 51 51 51 53 56 57 58 60 63 62 60 58 56 55 54 54 52 50 46 42 39 36 34 31 30 31 29 27 26 27 27 26 25 24 23 23 22 21 20 19 19 19 19 21 22 23 23
27 26 26 25 25 25 24 25 26 29 31 32 33 36 38 38 38 38 39 39 38 37 37 37 38 38 38 39 40 40 41 43 43 43 43 44 46 48 51 52 52 53 56 58 58 60 62 62 61 58 55 53 55 56 54 52 48 43 39 37 35 33 32 31 29 27 26 26 25 25 24 23 22 22 22 21 20 19 19 20 21 22 23 23 22
24 23 23 23 22 22 21 22 23 26 29 31 34 36 38 38 38 37 38 39 39 39 40 41 42 42 42 42 43 43 45 46 45 46 47 48 48 48 49 52 54 54 56 57 58 60 62 63 63 59 53 53 56 57 55 53 49 44 41 38 37 36 33 31 29 27 25 25 24 24 23 22 22 22 21 20 19 20 20 21 22 22 23 22 22
21 21 21 21 21 21 21 22 22 23 25 27 30 32 33 35 36 36 36 37 37 39 40 42 43 45 45 46 47 48 49 48 47 48 50 51 51 50 50 51 54 55 56 58 60 62 64 65 64 58 53 53 56 56 55 52 49 46 43 40 39 38 34 30 28 27 25 24 24 23 23 22 22 21 20 20 20 21 21 21 22 22 22 22 21
21 21 21 21 21 22 22 23 23 24 26 27 28 29 30 31 32 33 34 36 37 39 40 41 43 45 46 48 49 51 52 51 50 52 54 53 53 53 52 51 53 55 57 58 60 63 65 66 64 59 56 56 57 57 56 54 51 47 44 42 41 39 34 31 29 27 25 24 23 23 23 21 20 20 20 21 21 22 22 21 22 22 22 21 20
22 22 22 22 22 23 24 25 26 27 29 30 31 32 33 33 35 36 37 38 40 42 43 44 45 46 47 48 48 49 50 50 50 53 57 58 57 57 55 53 53 55 57 58 60 64 66 66 66 64 62 61 60 59 58 56 53 49 47 44 42 39 35 31 29 27 25 24 24 23 21 20 20 21 21 22 22 22 22 21 22 22 22 21 20
24 24 24 25 26 27 28 29 30 31 32 34 35 36 37 38 39 41 42 43 44 46 47 49 49 49 50 51 50 51 52 52 51 52 55 59 61 61 59 58 56 57 58 57 57 59 62 64 66 66 65 64 62 61 60 58 54 51 48 45 42 39 34 30 28 26 25 25 24 22 20 19 20 21 22 22 22 22 22 22 22 22 21 20 19
26 26 27 28 29 30 32 34 35 36 38 39 40 41 42 43 45 46 46 47 47 48 49 50 50 51 52 53 54 55 56 56 55 56 57 60 63 63 62 60 60 61 62 60 57 56 57 60 64 66 67 67 65 63 61 59 55 52 48 44 41 37 32 29 27 26 25 25 24 21 19 20 22 22 23 23 22 22 23 22 22 22 21 19 18
28 29 30 31 32 34 35 37 38 39 41 42 43 44 46 47 48 48 49 48 48 48 48 49 49 50 51 53 56 58 59 59 59 59 60 64 67 68 67 65 63 64 65 65 62 58 54 55 61 67 67 67 66 64 61 59 56 52 46 42 38 33 29 28 26 24 24 24 23 20 19 21 23 23 23 23 22 23 24 23 23 22 20 18 17
29 30 31 32 33 34 35 36 38 39 41 42 43 44 44 44 44 44 45 45 46 46 47 48 49 50 50 52 54 57 60 61 61 61 62 65 69 71 72 71 70 69 69 69 68 64 58 54 58 67 69 67 65 64 61 58 56 51 43 37 34 30 27 26 25 24 24 24 23 21 21 23 24 24 24 24 23 23 25 25 23 21 19 17 16
29 30 31 32 32 34 35 36 37 38 38 39 39 39 39 39 39 39 39 40 41 42 42 42 42 43 44 45 48 51 54 56 58 60 62 64 68 70 72 74 74 74 75 73 71 69 65 56 56 65 71 70 69 67 61 56 55 50 41 35 31 29 28 26 24 23 24 23 22 23 23 24 24 24 24 24 24 24 25 25 23 21 18 16 16
29 30 31 32 32 33 33 33 33 33 34 33 33 33 34 34 34 34 35 35 36 37 36 35 35 37 39 42 45 48 50 52 54 59 62 66 69 69 69 73 76 78 80 79 75 72 69 60 56 63 69 70 70 66 59 55 54 49 40 35 32 30 29 27 24 23 23 23 23 24 24 24 24 24 24 25 24 24 24 23 23 21 18 16 16
29 29 29 29 29 29 29 29 29 29 29 29 29 30 30 30 30 30 31 32 33 34 34 33 32 33 37 40 42 44 47 49 51 54 59 63 64 63 65 70 76 79 82 81 77 76 73 65 58 61 66 67 65 62 57 54 51 47 40 36 33 30 27 25 23 22 23 24 24 25 25 25 25 25 25 25 24 24 23 22 22 21 18 16 16
25 25 25 25 25 25 25 25 26 26 26 26 26 27 27 27 27 28 28 30 31 32 32 31 30 31 34 37 39 41 43 46 47 47 50 54 58 60 60 62 69 78 82 82 81 81 76 67 61 61 64 64 62 60 56 51 47 44 40 35 29 25 23 23 22 22 23 25 26 25 24 25 25 25 25 25 24 23 23 22 22 21 18 16 16
20 20 20 20 20 20 20 20 21 22 23 23 24 24 24 24 24 24 25 26 27 27 27 26 27 29 31 35 38 40 42 44 45 43 43 46 51 54 52 52 63 76 78 77 81 81 72 63 61 61 59 59 59 58 54 50 46 43 39 32 26 23 23 23 23 23 25 27 27 25 25 26 25 24 25 25 24 23 22 22 22 21 18 16 16
16 16 16 16 16 15 15 16 16 17 18 19 19 20 20 20 20 20 21 22 23 24 24 24 26 28 31 33 36 38 40 43 44 43 42 40 37 36 34 36 51 65 66 68 76 77 66 57 56 56 56 58 58 55 49 46 44 40 36 30 25 23 23 24 25 26 28 28 26 25 25 26 25 24 25 24 24 23 22 22 22 21 19 17 16
13 13 14 14 13 13 13 13 13 13 14 15 15 16 17 17 18 19 20 20 21 22 24 26 28 29 31 33 36 37 39 42 44 44 44 38 29 24 23 25 34 45 57 65 67 62 56 51 51 53 54 53 52 48 42 39 38 35 30 26 23 22 23 26 28 29 28 27 25 25 26 26 25 25 24 24 24 23 22 22 22 21 19 17 15
12 13 13 13 13 13 12 13 13 13 13 14 15 17 17 18 18 19 20 21 22 22 24 26 27 29 30 32 33 32 34 37 39 41 40 34 28 27 24 21 26 36 53 63 55 46 45 49 51 52 50 45 42 41 37 33 30 29 26 23 22 23 25 28 29 29 27 26 25 25 25 25 25 24 24 23 24 23 22 22 22 21 19 17 16
14 14 14 14 15 15 15 15 15 15 16 16 17 17 18 19 20 21 22 23 22 23 23 24 25 26 27 29 30 28 28 29 30 32 31 25 22 23 19 3 15 29 45 53 47 40 44 48 46 43 41 37 34 33 30 27 27 26 24 23 23 25 28 29 29 28 26 25 25 24 25 25 24 24 24 24 23 23 23 23 22 20 19 17 16
16 16 17 17 18 18 18 18 18 18 18 18 18 19 19 20 21 21 22 22 22 23 23 22 23 25 26 27 27 25 23 23 23 24 23 19 16 15 15 12 10 10 16 25 29 31 34 35 33 31 30 27 24 23 23 24 24 24 23 23 25 27 28 28 27 26 25 24 24 24 24 25 24 24 24 24 23 23 23 22 21 20 19 17 16
19 19 20 20 21 21 22 22 22 21 21 21 21 21 20 20 20 20 20 21 22 23 23 21 21 24 25 25 24 22 19 18 18 17 17 16 14 11 9 7 8 8 8 11 15 17 17 19 21 23 22 21 21 21 22 22 22 22 23 25 26 27 27 26 25 24 24 23 23 23 24 24 24 24 24 23 23 23 22 21 21 20 18 17 16
21 22 23 24 24 25 25 25 25 24 22 22 22 21 21 20 20 19 20 21 21 22 21 21 20 21 22 22 20 19 17 16 14 13 14 13 12 10 8 5 2 2 3 5 7 9 11 14 17 19 21 22 23 23 23 23 23 24 25 25 25 25 25 24 24 23 22 23 23 24 24 24 24 24 23 23 22 22 22 21 21 20 18 17 16
23 24 25 25 26 26 26 26 25 24 23 21 20 20 20 20 20 20 20 21 20 20 20 20 20 18 17 18 18 17 16 15 12 11 12 11 9 8 7 5 2 3 5 7 9 11 14 17 19 20 22 23 23 22 23 24 24 25 25 25 25 25 24 23 22 22 22 23 24 24 24 24 23 22 22 22 21 21 21 21 21 20 18 17 17
19 19 20 21 21 22 22 22 22 21 20 19 18 17 17 18 19 19 19 18 17 18 18 18 18 16 15 15 16 17 17 14 11 8 8 7 5 4 1 3 4 5 7 10 11 14 17 19 18 19 20 20 20 21 22 23 23 23 23 23 23 23 22 22 22 22 23 24 24 24 23 23 22 22 21 21 21 21 21 21 21 20 18 17 17
12 13 13 14 14 15 15 15 16 16 16 15 15 15 15 16 17 17 17 15 15 16 16 16 16 15 15 16 16 16 14 12 9 6 5 5 4 4 5 5 4 6 9 11 12 16 20 21 19 19 20 19 18 18 18 18 19 20 20 20 21 21 21 22 22 23 24 24 24 23 23 22 22 22 21 21 22 22 21 22 21 20 19 18 18
9 10 10 10 11 11 11 12 13 13 14 14 14 14 15 16 16 16 16 15 15 15 15 14 15 16 16 16 15 13 11 10 7 4 3 3 5 7 8 8 7 9 12 14 14 16 18 18 16 17 17 17 16 15 16 16 17 19 19 20 21 22 22 23 23 24 24 24 24 23 23 23 22 22 22 22 22 22 22 22 22 20 19 18 18
8 9 9 9 9 9 9 10 10 11 12 12 13 14 15 15 15 15 16 15 15 15 14 13 14 15 15 14 14 12 10 8 6 3 1 3 6 7 8 10 10 10 11 12 12 12 13 14 14 14 14 14 14 15 16 17 18 19 20 22 23 23 23 23 23 23 24 24 24 24 24 24 23 23 23 23 22 22 22 22 21 20 19 19 19
7 8 9 9 9 9 9 9 9 10 10 11 12 13 14 14 15 15 15 15 14 14 13 12 12 13 13 12 11 8 4 3 3 3 3 6 7 6 7 10 11 11 11 11 10 9 9 10 10 11 12 13 14 16 17 19 20 21 22 23 23 22 22 23 23 24 24 24 24 24 24 24 23 23 23 22 22 22 21 21 20 20 20 20 19
Wind_Direction
225 226 227 229 229 230 230 231 232 233 234 236 237 237 237 237 239 242 244 246 247 249 249 248 248 247 243 238 234 231 227 226 226 227 229 231 232 233 235 236 239 242 246 250 256 261 265 270 275 278 283 287 291 295 298 300 300 301 302 302 303 303 303 303 303 303 302 304 307 308 310 311 311 312 313 314 314 307 300 294 291 292 294 294 294
225 225 225 227 228 229 230 232 233 235 236 238 239 240 240 241 242 244 246 248 249 250 250 249 248 247 245 241 237 234 230 228 228 228 229 232 233 234 235 237 240 243 245 248 253 259 263 268 272 276 279 284 288 292 295 297 298 299 299 298 298 299 298 297 297 298 299 298 300 302 304 307 309 308 309 312 314 314 310 305 300 298 297 296 295
226 225 224 225 225 227 230 232 234 236 238 240 241 242 244 245 247 248 249 250 250 250 249 248 247 246 245 243 239 236 232 229 229 230 230 232 234 236 237 238 241 244 246 247 252 256 260 265 270 274 277 281 285 289 292 296 297 298 297 296 295 295 295 294 293 293 294 294 295 296 297 300 304 305 306 308 309 310 313 313 310 307 304 302 299
225 224 222 222 224 226 228 230 233 235 238 240 242 243 245 247 249 250 250 250 250 248 247 246 245 244 244 244 241 238 234 231 230 231 231 233 235 236 238 239 241 244 247 248 251 255 259 264 269 273 275 279 283 287 291 295 296 296 295 294 293 291 291 290 289 289 289 290 291 292 292 294 297 299 302 305 305 306 309 312 313 314 313 312 307
224 223 221 222 224 226 227 227 230 232 234 237 239 241 244 246 247 248 248 248 247 245 243 242 243 243 242 244 243 240 236 233 232 232 232 233 236 237 238 239 242 244 247 250 252 255 258 263 268 272 275 278 282 287 291 293 294 294 295 294 292 290 289 288 287 286 286 287 288 288 289 290 291 293 296 298 300 303 306 308 310 312 314 316 314
224 223 221 222 225 227 228 228 230 231 233 236 238 239 241 243 245 245 244 244 243 242 240 240 242 243 242 243 244 243 239 235 234 234 233 233 235 238 239 240 242 244 247 250 253 256 259 262 267 272 276 280 282 286 290 291 292 293 294 293 292 290 289 289 288 287 287 286 285 286 286 288 288 288 290 292 294 298 302 305 306 308 310 314 314
225 224 221 221 225 227 228 228 230 232 234 236 239 241 243 244 245 244 243 242 242 242 240 239 241 242 242 242 244 244 241 237 235 235 234 234 235 237 240 241 243 245 247 250 254 256 259 262 266 272 277 280 282 285 289 291 292 292 292 291 292 291 290 290 289 289 289 289 288 287 286 286 286 287 287 288 291 296 301 303 304 304 306 310 310
224 224 221 221 224 226 225 226 228 231 234 235 237 241 243 246 248 248 246 243 243 244 243 242 241 242 243 242 243 244 243 239 236 236 235 235 235 236 239 242 244 246 249 252 255 258 260 262 265 269 275 278 281 284 287 289 291 291 290 291 292 293 291 290 290 289 289 290 291 290 288 286 285 286 287 288 290 295 298 299 299 301 303 306 307
222 222 221 221 224 225 223 223 225 228 231 232 234 237 241 244 246 248 248 247 245 246 246 244 243 243 243 243 243 243 244 242 238 236 236 236 236 237 239 242 245 247 250 253 256 259 260 262 264 267 271 275 278 281 284 287 289 289 288 288 291 293 292 290 290 291 290 289 290 291 290 288 286 286 286 287 289 292 294 294 295 298 302 304 305
219 220 220 221 224 223 221 222 223 226 230 232 232 235 238 242 245 247 249 249 248 248 247 246 245 245 244 244 244 243 244 244 241 238 237 237 238 238 239 242 245 248 251 254 256 259 261 263 264 266 268 271 274 277 281 284 287 287 286 286 289 294 295 293 292 293 293 290 288 288 289 290 290 287 284 285 288 289 289 290 292 297 301 303 304
217 217 218 219 221 222 221 221 224 226 229 231 232 233 236 240 244 248 249 250 250 250 249 248 248 248 247 246 246 245 245 245 243 240 239 238 239 239 240 242 244 247 250 253 255 258 261 262 263 264 266 269 271 274 277 281 283 284 285 288 291 295 297 296 295 294 294 291 287 286 289 292 293 287 283 283 285 286 286 288 292 296 301 303 304
219 217 217 218 220 221 221 221 224 227 229 232 233 233 235 238 243 247 250 251 252 252 252 252 251 252 252 250 248 248 248 247 245 242 240 239 239 240 241 243 244 246 249 251 254 256 259 260 262 263 265 267 269 271 274 276 278 279 281 286 291 294 295 296 295 293 291 290 288 286 288 293 294 290 285 282 282 283 285 289 292 296 300 304 305
219 218 219 220 221 222 222 222 224 227 229 231 232 232 233 237 242 247 250 252 253 253 254 254 253 253 254 254 252 250 249 248 246 244 241 240 240 241 242 243 244 246 247 250 252 254 257 258 259 261 263 265 267 269 271 273 274 274 276 282 289 293 292 291 291 290 289 290 290 288 287 290 292 290 286 284 283 284 286 288 291 295 299 303 304
220 221 222 223 224 224 223 224 225 227 228 229 230 231 232 235 240 245 249 251 252 253 254 254 253 253 254 256 255 253 251 250 248 245 243 241 240 241 242 243 244 246 248 250 252 253 255 257 257 259 261 263 265 267 269 270 270 271 273 278 286 291 289 287 287 287 287 290 291 289 286 285 286 286 286 287 287 287 288 289 291 295 298 301 302
223 224 225 226 227 226 225 225 226 226 227 228 230 231 232 233 237 241 246 249 251 253 254 254 253 252 252 254 256 255 254 253 251 247 244 242 241 241 242 244 245 247 249 251 252 253 254 256 257 258 259 260 262 266 268 268 268 269 271 275 283 286 284 283 285 286 287 288 289 288 284 280 280 283 286 288 288 288 289 290 290 294 297 298 299
223 224 226 227 228 228 227 227 227 228 229 231 233 234 234 235 237 240 243 247 251 253 254 254 254 253 251 252 254 256 256 255 254 251 247 244 242 242 243 244 245 247 249 251 253 254 255 256 258 259 259 260 261 263 265 266 267 269 271 273 278 282 281 281 284 286 287 287 286 285 282 278 278 282 285 287 287 287 288 288 289 292 294 295 296
220 222 224 225 226 227 227 227 228 229 231 234 235 236 237 237 238 240 243 246 249 252 254 255 255 255 254 253 253 256 258 258 257 256 251 247 245 244 244 244 245 247 249 252 254 254 255 256 258 259 260 261 261 260 261 263 266 269 271 271 274 278 278 280 285 287 286 285 284 282 280 279 279 281 283 284 284 284 284 285 289 291 291 292 294
219 219 219 222 224 226 227 227 227 228 230 232 233 235 237 238 239 241 242 244 246 250 252 253 255 256 256 255 253 254 255 256 257 256 253 249 247 247 246 246 247 248 249 251 253 254 255 255 257 259 260 261 261 259 258 260 264 267 269 268 271 277 278 279 285 286 283 282 281 280 280 279 279 280 281 281 280 280 281 285 288 288 287 288 291
219 218 218 220 224 225 225 226 227 228 228 228 228 231 236 241 244 246 246 246 246 248 249 252 254 255 256 255 254 253 252 252 253 254 252 250 247 247 247 248 248 249 250 251 252 253 254 254 255 257 259 261 261 258 256 258 262 266 268 266 268 274 277 278 282 282 279 279 280 279 279 279 279 279 278 277 276 277 279 283 284 283 283 287 292
220 218 218 219 222 224 225 226 227 229 229 228 230 235 240 244 250 256 255 251 249 249 251 253 255 256 255 255 254 253 252 252 252 251 251 249 246 245 245 247 249 250 251 252 253 253 254 254 255 256 258 260 259 256 254 256 260 263 266 266 266 271 274 275 278 279 277 278 278 276 276 277 277 277 275 274 275 275 277 279 279 280 284 290 297
220 219 219 220 222 225 226 228 230 231 231 233 236 240 243 244 248 254 257 252 249 249 251 252 253 254 254 254 254 253 252 251 251 251 251 250 248 246 245 245 247 249 250 252 254 254 254 255 255 256 257 259 259 256 253 255 258 261 264 265 265 267 269 271 275 276 275 276 275 274 274 274 274 273 272 273 274 275 275 276 277 281 287 295 301
220 220 220 222 225 227 229 231 233 234 235 237 239 238 238 239 241 245 249 251 248 246 247 249 251 252 252 253 253 253 251 250 251 251 251 252 250 248 247 246 245 246 247 250 253 254 255 256 257 257 257 258 259 256 254 254 256 259 262 263 261 262 265 267 270 272 273 274 273 271 272 273 271 270 271 272 274 275 275 275 278 284 291 297 301
218 220 223 227 231 235 237 238 238 237 237 239 239 236 233 235 237 240 245 248 246 245 245 246 247 249 250 252 252 252 252 252 252 252 252 253 252 251 249 247 245 244 245 247 251 253 254 255 257 257 257 257 257 256 254 254 255 257 260 260 258 258 260 263 267 270 270 269 268 268 269 270 271 272 271 271 273 274 274 276 281 287 292 296 299
220 224 229 233 236 240 243 244 243 242 243 244 242 238 235 236 238 241 243 245 244 245 246 247 249 251 252 253 253 254 254 255 256 256 256 257 257 255 254 251 248 247 246 247 249 252 254 254 255 256 256 256 256 255 254 254 254 255 257 257 255 254 256 260 265 266 265 265 264 264 265 267 270 271 271 270 271 272 274 278 283 289 293 296 299
227 230 233 236 238 240 242 244 245 245 246 247 245 241 238 238 239 242 243 243 244 246 249 252 254 256 256 257 257 257 258 258 259 260 261 262 260 258 257 255 253 250 248 247 248 251 253 253 253 254 253 252 252 252 253 254 254 253 253 254 251 251 253 258 262 262 261 261 260 261 264 266 268 270 270 269 270 271 274 279 285 289 293 296 301
228 231 233 235 239 241 242 243 244 244 245 246 246 244 243 243 245 247 248 249 251 253 254 255 255 255 255 256 257 256 256 257 259 260 261 261 260 259 258 257 255 253 250 248 247 248 250 252 252 251 250 249 249 250 252 253 252 250 251 250 248 248 252 256 259 259 259 258 257 259 262 264 266 269 269 268 268 270 273 279 285 289 292 296 301
231 233 235 238 240 241 243 243 243 244 246 247 248 249 249 250 252 253 255 257 259 260 260 259 257 256 257 257 256 254 253 254 256 258 260 260 260 260 259 257 256 255 252 249 247 246 247 249 250 249 247 245 247 249 249 249 248 247 248 247 245 246 250 254 255 255 254 253 254 256 258 260 264 267 265 263 265 268 273 279 285 289 292 296 299
238 239 241 243 244 246 247 248 248 249 249 250 252 253 254 255 257 258 260 261 263 264 264 264 263 262 262 261 259 258 256 255 255 256 258 260 259 257 257 256 254 254 254 252 249 246 246 247 247 245 243 242 243 245 245 245 244 245 245 244 243 243 247 249 249 249 249 250 253 254 254 255 260 262 259 260 263 267 272 280 284 287 291 294 295
242 244 246 249 251 253 255 255 256 257 257 258 260 261 262 263 264 265 265 266 267 267 268 268 268 268 267 266 265 264 263 263 261 259 259 259 257 254 253 253 252 253 252 251 249 246 244 244 244 243 241 242 243 244 244 244 243 243 243 241 240 240 244 245 245 245 246 249 252 253 249 248 253 256 256 258 261 266 272 279 283 285 288 291 293
246 248 250 253 254 256 258 260 261 262 263 264 265 266 267 267 267 268 268 268 269 269 270 270 271 271 271 271 271 270 270 269 267 265 264 264 262 258 254 252 251 251 250 250 251 248 244 243 243 243 243 244 244 244 245 244 242 242 242 238 236 238 240 240 239 241 244 248 250 248 243 244 249 253 254 256 260 266 273 277 280 283 285 287 289
251 253 254 256 257 258 259 260 261 262 263 264 265 266 267 267 267 267 267 268 268 269 270 271 272 273 273 273 273 273 272 272 271 269 269 269 268 265 261 257 253 251 249 250 254 253 246 242 242 242 242 244 244 245 247 245 242 241 238 234 233 236 237 234 235 240 244 246 247 243 240 243 248 250 251 255 260 266 271 274 277 280 282 283 285
255 257 258 259 259 260 260 260 260 261 261 262 262 263 264 265 266 266 267 268 269 270 271 273 274 274 275 275 274 274 273 272 271 270 269 269 268 267 266 262 258 254 252 251 253 254 249 242 239 239 239 240 242 243 245 244 240 235 231 229 230 234 233 231 236 242 244 244 243 238 235 240 245 247 250 254 259 265 270 272 274 276 278 279 282
257 258 259 259 259 259 259 259 259 259 260 261 262 263 264 266 268 269 270 272 273 274 275 276 276 276 276 276 277 277 276 275 273 271 270 269 268 267 266 264 261 258 255 253 253 255 253 245 237 235 236 237 238 240 242 241 236 230 227 228 229 228 227 230 237 242 243 241 238 233 232 238 243 245 248 253 259 265 269 271 272 273 275 277 280
256 258 259 260 260 259 259 258 259 259 261 262 264 265 266 268 270 271 271 272 272 273 274 274 275 276 276 276 277 278 278 279 279 278 276 273 271 269 266 264 261 258 256 254 251 251 251 247 238 233 233 233 236 238 239 238 234 230 228 228 224 219 222 231 239 244 243 240 234 230 232 237 242 244 248 253 259 264 268 271 272 271 272 276 281
253 255 256 257 258 259 260 261 262 264 265 266 267 267 268 268 268 268 268 268 268 269 269 269 270 272 273 274 274 275 278 280 280 280 279 276 273 271 268 264 260 257 254 252 249 248 248 246 240 233 231 232 234 236 234 232 230 228 226 224 221 219 223 230 238 243 240 235 231 231 233 237 241 244 249 255 261 265 268 270 272 272 272 275 279
250 251 254 256 258 261 262 264 265 266 266 267 266 267 267 267 266 267 267 268 269 270 270 271 272 274 274 275 277 279 281 282 281 280 278 275 273 271 270 266 262 257 253 250 247 245 244 242 238 234 231 230 230 229 227 227 228 226 222 222 223 223 225 230 236 239 235 230 231 232 233 237 242 245 251 258 263 266 267 269 270 270 270 272 276
250 253 256 257 259 261 262 263 264 265 265 265 265 265 266 266 267 269 270 271 273 274 276 278 280 279 278 280 283 284 284 284 286 286 283 277 273 272 274 271 263 256 252 247 243 242 240 238 235 232 229 226 224 221 221 224 224 219 217 220 223 224 227 230 232 233 232 231 232 232 233 238 243 247 254 260 264 265 266 267 268 267 267 268 273
257 259 259 259 260 260 260 261 262 263 263 264 264 264 265 266 269 273 276 279 280 283 287 291 292 289 289 292 295 294 291 291 295 301 303 295 283 278 281 275 260 250 246 242 241 240 239 236 233 228 223 220 217 213 213 214 214 214 217 221 223 225 225 224 225 229 233 232 231 230 233 238 244 250 257 262 264 264 265 265 265 264 263 265 270
262 261 260 260 260 260 261 262 263 264 265 266 267 267 269 274 279 283 287 291 293 295 300 304 305 303 305 310 312 312 310 308 309 316 324 321 306 295 293 278 256 247 243 243 243 240 236 234 230 223 215 212 209 207 206 207 211 216 220 220 221 225 224 221 225 231 232 229 226 228 234 241 247 253 258 263 265 265 264 264 263 261 261 262 267
265 263 262 261 260 263 267 269 271 273 274 275 277 279 282 286 290 293 296 300 303 306 308 310 312 312 315 319 322 326 328 326 325 331 336 335 331 327 315 285 258 243 237 237 240 240 235 229 221 210 204 201 200 200 202 205 208 214 218 218 221 223 222 222 225 227 225 222 224 229 237 244 251 256 260 264 266 265 263 262 260 258 258 260 264
263 265 267 267 267 270 275 277 278 280 282 284 287 289 291 295 297 300 302 304 308 311 312 313 316 318 319 321 324 330 335 335 337 343 344 337 337 345 332 286 249 229 222 225 232 235 225 213 202 193 190 189 191 194 199 202 208 216 220 219 217 216 218 220 221 219 218 221 226 232 240 248 254 259 263 265 265 264 262 259 256 255 255 257 262
263 266 270 272 273 276 279 280 282 284 286 288 291 293 296 299 300 301 303 306 310 314 316 317 319 319 319 320 322 328 336 339 342 351 352 341 339 357 5 322 205 202 204 207 210 205 194 186 181 178 179 183 191 198 204 211 220 223 218 212 211 212 215 216 215 215 218 224 230 237 246 252 257 262 264 265 264 262 259 255 252 250 249 252 259
268 270 273 276 278 281 284 284 286 289 291 293 295 297 299 301 301 301 303 306 310 315 317 318 321 321 318 317 320 326 334 339 342 351 357 355 349 359 20 52 85 123 160 169 166 161 160 162 166 171 176 185 198 207 212 217 219 215 209 207 210 212 212 212 212 216 222 229 235 244 251 256 260 264 264 263 262 258 255 252 248 245 245 249 257
268 271 273 275 277 280 283 284 287 289 290 292 295 296 297 299 299 298 300 304 309 311 312 316 323 323 318 315 320 325 329 334 342 350 357 3 5 2 5 30 54 62 84 112 128 138 149 161 173 182 188 195 202 204 205 205 206 205 206 208 209 209 209 211 215 220 227 235 242 250 255 260 263 264 263 262 258 254 251 247 243 240 242 248 256
269 271 273 275 276 278 279 281 284 287 288 290 292 293 293 293 293 293 296 301 304 305 307 311 318 321 318 317 322 327 326 325 332 341 345 351 4 14 15 20 71 153 150 140 150 167 179 187 192 195 196 195 193 192 192 194 197 201 204 205 205 207 210 213 219 226 234 242 248 254 259 263 264 263 262 259 254 251 247 242 237 236 239 246 254
270 273 274 275 276 276 277 278 279 281 283 284 285 286 287 288 289 291 294 298 299 299 303 308 311 314 318 318 319 325 329 325 321 326 334 340 353 6 13 29 88 182 192 186 186 187 185 187 191 192 190 188 187 187 190 194 198 200 201 202 204 208 213 219 226 234 241 247 253 258 261 262 262 261 259 256 252 248 244 238 233 233 238 245 253
272 274 275 277 277 277 277 277 276 277 278 278 278 279 281 282 285 289 291 293 296 298 302 306 308 310 313 313 310 315 322 323 319 319 324 330 339 346 12 129 150 189 195 185 185 187 183 180 182 185 186 187 189 190 193 197 199 200 201 204 208 214 221 228 234 240 246 253 259 262 262 261 260 260 258 254 250 245 240 234 230 231 236 244 252
278 280 281 282 282 279 278 277 275 273 274 274 274 276 278 279 283 287 288 290 295 299 300 301 303 305 305 302 301 307 315 316 314 316 308 289 268 238 207 188 200 223 209 189 185 187 183 178 179 183 184 185 189 192 194 197 200 203 208 213 218 224 230 234 240 246 252 258 262 264 262 261 260 259 255 251 246 241 235 230 228 230 236 243 250
286 286 287 288 289 287 285 284 281 277 276 276 275 276 278 280 282 285 287 289 291 294 294 292 292 296 300 297 294 300 307 302 299 316 318 252 228 222 216 211 212 210 197 185 180 180 176 173 176 183 183 182 185 189 194 199 206 212 218 221 225 231 235 239 245 252 257 261 264 263 261 260 259 256 250 244 240 236 231 228 228 231 237 243 249
290 290 291 293 295 295 294 293 293 289 285 284 282 280 280 282 283 284 287 288 288 287 287 285 285 291 297 296 292 295 297 284 272 284 273 195 196 201 204 200 197 189 178 173 174 175 172 171 174 178 179 182 189 197 204 210 216 220 224 228 232 236 240 245 252 257 261 264 264 262 260 259 256 251 244 239 235 232 229 227 229 233 238 243 248
298 298 299 299 299 300 299 300 300 298 293 289 288 286 285 287 288 287 287 288 287 285 283 282 283 288 293 294 292 291 283 236 227 232 188 170 167 166 169 174 174 169 164 165 173 178 176 175 177 182 188 197 205 211 214 217 220 224 228 233 238 243 248 254 260 263 265 266 265 263 261 257 250 244 239 236 234 232 230 230 232 235 239 244 248
Height
3164 3166 3169 3171 3173 3175 3177 3178 3180 3182 3184 3185 3186 3188 3189 3190 3192 3193 3194 3195 3196 3197 3198 3198 3199 3200 3201 3201 3202 3203 3204 3206 3207 3208 3209 3210 3211 3212 3213 3213 3214 3214 3214 3215 3215 3216 3216 3216 3216 3216 3216 3215 3215 3215 3214 3214 3213 3212 3212 3212 3211 3211 3210 3209 3209 3208 3208 3207 3207 3207 3206 3206 3206 3205 3204 3204 3204 3203 3202 3201 3201 3200 3200 3199 3198
3161 3163 3166 3167 3169 3171 3173 3175 3177 3179 3180 3181 3183 3184 3186 3187 3189 3190 3190 3192 3193 3194 3195 3196 3196 3197 3197 3198 3199 3200 3202 3203 3204 3205 3207 3208 3209 3210 3211 3212 3212 3212 3212 3213 3213 3214 3214 3214 3214 3214 3214 3213 3214 3213 3213 3212 3212 3211 3211 3210 3210 3209 3209 3208 3207 3207 3206 3205 3205 3205 3204 3204 3203 3203 3202 3202 3201 3201 3200 3199 3199 3198 3198 3197 3196
3158 3160 3162 3164 3166 3168 3170 3171 3173 3175 3176 3178 3179 3181 3182 3184 3185 3186 3187 3189 3190 3191 3192 3193 3193 3194 3194 3195 3196 3197 3199 3200 3201 3203 3204 3206 3207 3207 3208 3210 3210 3210 3211 3211 3211 3212 3212 3212 3212 3212 3211 3211 3212 3212 3211 3211 3210 3210 3209 3208 3208 3207 3207 3206 3205 3205 3204 3203 3203 3203 3202 3202 3201 3201 3200 3200 3199 3198 3198 3197 3196 3196 3195 3195 3194
3155 3157 3159 3161 3163 3165 3166 3168 3170 3171 3172 3174 3176 3178 3179 3180 3182 3183 3184 3185 3186 3187 3188 3189 3190 3190 3191 3192 3193 3194 3196 3197 3198 3200 3202 3203 3204 3205 3206 3207 3208 3208 3209 3209 3209 3210 3210 3211 3210 3210 3209 3209 3209 3209 3209 3209 3209 3208 3207 3207 3206 3205 3204 3204 3203 3203 3202 3202 3201 3201 3200 3200 3199 3199 3198 3198 3197 3196 3195 3195 3194 3193 3193 3193 3192
3151 3153 3156 3158 3160 3161 3163 3165 3166 3168 3169 3171 3172 3174 3176 3177 3178 3179 3180 3181 3182 3183 3185 3186 3186 3187 3188 3188 3189 3191 3193 3194 3195 3197 3199 3200 3201 3202 3203 3205 3206 3206 3206 3207 3207 3207 3208 3209 3208 3207 3207 3207 3207 3207 3207 3207 3206 3206 3205 3204 3204 3203 3202 3201 3201 3200 3200 3199 3199 3199 3198 3198 3197 3197 3196 3196 3195 3194 3193 3192 3192 3191 3190 3190 3189
3148 3150 3153 3155 3156 3158 3160 3162 3163 3165 3167 3168 3170 3171 3173 3174 3175 3176 3177 3178 3179 3180 3181 3182 3182 3183 3185 3186 3186 3188 3190 3191 3192 3194 3196 3197 3198 3199 3200 3202 3203 3203 3204 3204 3204 3205 3206 3206 3206 3205 3204 3204 3204 3204 3204 3204 3204 3203 3202 3202 3201 3201 3200 3199 3199 3198 3198 3197 3197 3196 3196 3195 3195 3194 3194 3193 3193 3192 3191 3190 3189 3188 3187 3187 3186
3144 3147 3149 3151 3153 3154 3157 3159 3161 3163 3164 3166 3168 3169 3170 3171 3171 3173 3174 3175 3175 3176 3177 3179 3179 3180 3182 3183 3184 3185 3186 3188 3189 3190 3192 3194 3195 3196 3197 3198 3200 3200 3201 3201 3201 3202 3203 3204 3204 3203 3202 3202 3202 3202 3201 3201 3201 3200 3200 3199 3198 3198 3197 3197 3196 3196 3195 3195 3194 3194 3193 3193 3192 3191 3191 3190 3190 3190 3189 3188 3186 3185 3184 3184 3183
3140 3143 3146 3148 3149 3151 3154 3156 3159 3160 3162 3163 3165 3166 3167 3168 3168 3169 3170 3171 3172 3173 3174 3175 3177 3177 3178 3180 3181 3181 3183 3184 3186 3187 3189 3190 3191 3193 3194 3195 3196 3197 3198 3198 3198 3199 3200 3201 3201 3200 3199 3199 3199 3199 3199 3199 3198 3198 3197 3197 3196 3195 3195 3194 3194 3194 3193 3193 3192 3191 3191 3190 3189 3189 3188 3187 3187 3187 3186 3185 3184 3183 3181 3181 3180
3137 3139 3142 3144 3146 3148 3151 3154 3156 3158 3159 3160 3162 3163 3164 3165 3166 3166 3167 3168 3169 3170 3171 3172 3173 3174 3175 3176 3177 3178 3179 3180 3182 3184 3185 3186 3188 3189 3190 3192 3193 3194 3194 3195 3195 3196 3197 3198 3198 3197 3197 3197 3197 3196 3196 3196 3196 3195 3195 3194 3193 3192 3192 3191 3190 3191 3191 3190 3189 3189 3188 3187 3187 3187 3186 3185 3184 3184 3184 3183 3182 3181 3180 3178 3177
3132 3135 3138 3141 3143 3145 3148 3151 3153 3154 3155 3157 3158 3160 3161 3162 3163 3163 3164 3165 3166 3167 3168 3169 3170 3170 3171 3173 3174 3174 3175 3176 3178 3180 3182 3183 3185 3186 3187 3188 3190 3190 3191 3191 3192 3192 3193 3194 3195 3194 3194 3194 3194 3194 3193 3193 3193 3193 3192 3191 3191 3190 3189 3188 3187 3188 3188 3187 3186 3186 3185 3184 3184 3184 3183 3182 3182 3182 3181 3180 3179 3178 3177 3176 3174
3129 3132 3135 3137 3139 3142 3145 3148 3149 3151 3152 3153 3155 3157 3158 3159 3160 3160 3161 3162 3163 3164 3165 3166 3167 3167 3168 3169 3170 3170 3171 3172 3175 3177 3179 3180 3181 3182 3183 3184 3186 3187 3187 3187 3188 3189 3190 3190 3191 3191 3190 3190 3191 3191 3190 3190 3190 3190 3189 3188 3188 3187 3186 3185 3185 3185 3184 3184 3183 3183 3182 3182 3181 3181 3181 3181 3180 3179 3178 3177 3177 3176 3174 3173 3172
3126 3129 3131 3134 3136 3139 3142 3144 3146 3147 3149 3150 3152 3154 3155 3156 3157 3157 3158 3159 3161 3162 3162 3163 3164 3164 3165 3165 3166 3167 3167 3169 3171 3173 3175 3177 3178 3178 3179 3180 3182 3182 3183 3183 3184 3185 3186 3187 3187 3186 3186 3187 3187 3187 3187 3187 3187 3186 3186 3186 3185 3185 3184 3183 3183 3182 3181 3181 3181 3180 3179 3179 3179 3179 3179 3178 3177 3177 3176 3175 3174 3173 3172 3171 3169
3123 3126 3128 3130 3133 3136 3138 3140 3142 3144 3145 3147 3149 3150 3152 3153 3154 3154 3155 3156 3158 3158 3158 3159 3161 3161 3161 3161 3162 3163 3164 3165 3167 3169 3171 3173 3174 3175 3175 3176 3177 3178 3178 3179 3180 3181 3182 3182 3182 3182 3182 3183 3184 3183 3184 3184 3184 3183 3183 3183 3183 3182 3182 3181 3180 3180 3179 3178 3177 3177 3177 3177 3176 3176 3176 3175 3174 3174 3173 3172 3171 3171 3169 3168 3166
3121 3123 3125 3128 3130 3133 3135 3137 3139 3140 3142 3144 3145 3147 3149 3150 3151 3152 3152 3153 3154 3154 3155 3156 3157 3158 3158 3158 3158 3159 3160 3161 3163 3165 3167 3169 3170 3171 3171 3172 3173 3173 3174 3175 3175 3176 3177 3177 3177 3178 3178 3179 3179 3179 3180 3181 3180 3179 3179 3180 3180 3179 3179 3178 3178 3177 3176 3175 3174 3174 3174 3173 3173 3173 3172 3172 3172 3171 3170 3169 3168 3168 3166 3165 3164
3118 3120 3123 3125 3127 3129 3132 3134 3135 3137 3139 3140 3142 3144 3145 3147 3148 3148 3149 3149 3150 3150 3151 3152 3153 3154 3154 3154 3154 3155 3156 3157 3159 3161 3163 3164 3166 3167 3167 3168 3169 3169 3170 3170 3171 3172 3172 3172 3172 3173 3174 3175 3175 3176 3176 3177 3176 3175 3176 3177 3177 3176 3176 3175 3175 3174 3173 3172 3171 3171 3170 3169 3169 3169 3169 3168 3168 3167 3167 3166 3165 3164 3163 3162 3161
3115 3118 3120 3121 3124 3126 3128 3130 3132 3134 3136 3137 3139 3141 3142 3144 3145 3145 3145 3146 3146 3147 3147 3148 3148 3149 3150 3150 3151 3151 3152 3154 3154 3156 3158 3160 3161 3162 3162 3162 3164 3165 3165 3165 3166 3167 3167 3167 3167 3168 3169 3170 3171 3172 3172 3172 3172 3172 3172 3173 3173 3173 3172 3172 3172 3171 3169 3169 3168 3167 3166 3166 3165 3165 3165 3165 3164 3164 3163 3163 3162 3161 3160 3158 3158
3112 3114 3116 3118 3121 3123 3125 3127 3129 3131 3133 3134 3135 3137 3139 3140 3141 3141 3142 3142 3142 3142 3143 3144 3144 3145 3145 3146 3147 3147 3149 3150 3150 3152 3154 3155 3156 3157 3157 3157 3158 3160 3160 3160 3160 3161 3162 3162 3162 3162 3164 3165 3167 3169 3168 3167 3167 3168 3169 3170 3169 3169 3168 3168 3168 3167 3166 3165 3164 3163 3163 3162 3162 3162 3162 3161 3160 3160 3159 3159 3158 3158 3156 3156 3155
3108 3110 3113 3115 3117 3119 3121 3123 3125 3127 3128 3130 3131 3133 3135 3136 3136 3137 3137 3137 3138 3138 3138 3139 3139 3140 3141 3142 3142 3143 3144 3145 3146 3147 3149 3151 3152 3152 3152 3153 3153 3155 3156 3155 3155 3155 3156 3156 3156 3157 3158 3160 3162 3164 3164 3163 3163 3164 3165 3166 3165 3165 3164 3163 3163 3163 3162 3160 3160 3159 3159 3158 3158 3158 3158 3157 3157 3156 3156 3155 3155 3154 3153 3153 3152
3105 3107 3109 3112 3114 3116 3118 3120 3121 3122 3124 3125 3127 3129 3130 3132 3132 3132 3133 3133 3133 3133 3133 3134 3134 3135 3136 3137 3137 3138 3139 3139 3140 3141 3143 3145 3146 3147 3147 3148 3148 3150 3151 3150 3149 3149 3150 3150 3150 3152 3153 3155 3157 3159 3158 3158 3158 3160 3161 3161 3161 3161 3160 3159 3159 3159 3158 3157 3156 3155 3155 3155 3154 3154 3153 3153 3153 3153 3152 3151 3151 3150 3150 3150 3149
3102 3105 3107 3108 3110 3112 3114 3115 3117 3118 3119 3121 3123 3124 3126 3127 3127 3127 3128 3128 3128 3129 3129 3129 3130 3130 3131 3131 3132 3133 3134 3134 3134 3135 3137 3138 3139 3140 3141 3142 3143 3144 3145 3145 3144 3143 3144 3144 3145 3148 3149 3149 3151 3153 3153 3152 3154 3155 3156 3157 3157 3157 3155 3154 3154 3155 3154 3153 3152 3151 3151 3150 3150 3150 3149 3149 3149 3149 3148 3148 3148 3147 3147 3146 3145
3099 3101 3103 3104 3106 3107 3109 3111 3112 3114 3115 3116 3118 3120 3121 3121 3121 3122 3123 3123 3123 3124 3124 3124 3124 3125 3125 3126 3126 3127 3128 3128 3128 3129 3131 3132 3133 3134 3134 3136 3137 3138 3139 3139 3138 3137 3138 3138 3140 3143 3144 3144 3146 3148 3148 3147 3149 3150 3151 3152 3153 3153 3151 3149 3149 3150 3149 3149 3148 3147 3147 3146 3146 3145 3145 3145 3145 3145 3145 3145 3144 3144 3143 3143 3141
3095 3097 3099 3100 3102 3103 3105 3106 3108 3109 3110 3111 3112 3113 3114 3115 3115 3116 3117 3117 3118 3118 3119 3119 3119 3120 3120 3120 3120 3121 3122 3122 3122 3123 3125 3126 3127 3127 3128 3130 3131 3132 3132 3132 3131 3130 3131 3133 3135 3138 3139 3139 3141 3143 3142 3142 3144 3145 3147 3148 3148 3148 3147 3145 3145 3145 3145 3144 3144 3143 3143 3142 3142 3142 3141 3141 3142 3142 3142 3141 3141 3140 3140 3139 3138
3091 3094 3095 3097 3098 3100 3101 3102 3103 3104 3106 3106 3107 3108 3109 3110 3110 3111 3112 3112 3113 3113 3114 3114 3114 3114 3115 3115 3116 3116 3117 3117 3117 3118 3120 3121 3121 3122 3123 3124 3125 3126 3125 3126 3125 3124 3125 3127 3129 3132 3134 3135 3135 3136 3136 3137 3139 3140 3142 3143 3143 3143 3142 3140 3140 3140 3140 3140 3140 3139 3139 3138 3138 3138 3138 3138 3138 3138 3138 3138 3137 3137 3136 3135 3134
3089 3090 3092 3093 3095 3096 3097 3098 3099 3100 3101 3102 3103 3104 3105 3106 3106 3107 3107 3108 3108 3109 3109 3109 3109 3110 3110 3110 3111 3112 3112 3111 3112 3113 3115 3115 3115 3115 3117 3118 3120 3120 3119 3120 3120 3119 3119 3120 3123 3125 3128 3130 3130 3130 3130 3132 3133 3135 3136 3137 3138 3138 3137 3136 3135 3136 3136 3135 3135 3135 3135 3135 3134 3133 3134 3134 3134 3135 3135 3134 3134 3133 3132 3131 3130
3086 3087 3089 3090 3091 3093 3094 3095 3096 3097 3098 3099 3100 3100 3101 3101 3102 3102 3103 3103 3104 3104 3105 3105 3105 3105 3105 3105 3106 3107 3106 3106 3107 3108 3109 3109 3109 3109 3109 3111 3112 3112 3112 3114 3114 3112 3112 3114 3116 3118 3122 3124 3123 3123 3124 3126 3128 3129 3130 3132 3132 3132 3132 3131 3131 3131 3131 3131 3131 3131 3131 3130 3130 3129 3130 3131 3131 3132 3132 3131 3130 3130 3128 3127 3126
3083 3084 3086 3087 3088 3089 3090 3092 3093 3094 3095 3095 3096 3097 3097 3097 3097 3098 3099 3099 3100 3100 3101 3100 3099 3099 3099 3100 3100 3100 3099 3099 3101 3102 3102 3101 3102 3102 3102 3103 3104 3104 3105 3106 3107 3105 3105 3106 3107 3111 3115 3116 3115 3116 3118 3120 3122 3123 3124 3126 3126 3126 3127 3127 3126 3127 3127 3127 3127 3127 3126 3126 3125 3125 3127 3128 3128 3128 3128 3128 3127 3126 3125 3123 3122
3080 3081 3083 3084 3085 3086 3087 3088 3089 3090 3091 3092 3092 3093 3093 3093 3094 3094 3094 3095 3095 3095 3095 3095 3094 3094 3094 3093 3093 3093 3092 3092 3094 3094 3093 3094 3096 3096 3096 3095 3096 3096 3096 3097 3098 3097 3095 3096 3100 3104 3107 3107 3108 3110 3112 3114 3115 3117 3118 3119 3119 3120 3121 3121 3121 3122 3122 3122 3122 3122 3121 3121 3121 3122 3123 3124 3124 3125 3125 3124 3123 3122 3121 3119 3118
3077 3078 3079 3080 3081 3082 3083 3084 3085 3086 3087 3087 3088 3088 3089 3089 3089 3090 3090 3090 3089 3089 3088 3089 3088 3088 3088 3087 3086 3086 3085 3086 3088 3087 3085 3086 3088 3088 3087 3088 3088 3087 3087 3088 3088 3087 3086 3088 3092 3095 3096 3097 3099 3102 3104 3106 3108 3110 3112 3112 3113 3114 3115 3116 3116 3117 3117 3117 3117 3117 3116 3116 3117 3118 3119 3120 3121 3121 3121 3120 3119 3118 3117 3115 3114
3074 3075 3076 3077 3077 3078 3079 3080 3081 3082 3082 3083 3083 3083 3084 3084 3084 3084 3084 3084 3083 3082 3082 3081 3081 3081 3081 3079 3079 3078 3077 3080 3082 3081 3078 3078 3079 3078 3079 3080 3080 3079 3079 3079 3077 3076 3076 3078 3081 3084 3086 3087 3090 3093 3095 3098 3101 3104 3105 3106 3107 3108 3109 3109 3110 3111 3112 3112 3112 3112 3112 3112 3114 3115 3115 3116 3117 3117 3117 3116 3115 3114 3113 3112 3110
3070 3071 3072 3073 3074 3074 3075 3076 3077 3077 3077 3077 3078 3078 3078 3078 3078 3078 3078 3077 3076 3075 3075 3074 3074 3073 3072 3072 3071 3070 3069 3072 3074 3073 3071 3069 3069 3069 3071 3072 3071 3071 3071 3069 3065 3064 3067 3071 3073 3076 3077 3079 3082 3085 3088 3092 3095 3097 3099 3100 3100 3101 3102 3103 3104 3105 3106 3107 3107 3107 3107 3109 3110 3111 3112 3112 3113 3113 3113 3112 3111 3111 3110 3108 3107
3066 3067 3068 3069 3070 3070 3071 3072 3072 3072 3072 3072 3072 3072 3072 3072 3072 3072 3071 3071 3070 3069 3068 3067 3067 3066 3064 3063 3063 3062 3061 3063 3065 3065 3064 3061 3059 3059 3062 3063 3063 3063 3061 3058 3054 3053 3059 3064 3066 3068 3070 3070 3073 3077 3081 3086 3090 3092 3093 3094 3094 3095 3097 3098 3099 3100 3101 3102 3102 3102 3102 3104 3106 3108 3108 3108 3109 3109 3109 3108 3107 3107 3106 3104 3103
3063 3064 3064 3065 3066 3066 3067 3067 3067 3067 3067 3067 3067 3067 3066 3066 3065 3065 3064 3064 3063 3062 3061 3060 3060 3059 3057 3055 3054 3053 3053 3053 3054 3055 3055 3052 3049 3049 3051 3053 3054 3053 3052 3049 3043 3042 3047 3055 3058 3060 3061 3062 3065 3070 3073 3077 3081 3085 3087 3088 3089 3090 3093 3093 3094 3096 3097 3098 3098 3098 3098 3100 3102 3103 3104 3104 3105 3105 3104 3104 3103 3103 3102 3101 3100
3059 3059 3060 3061 3061 3062 3062 3062 3062 3062 3062 3061 3061 3061 3061 3060 3059 3059 3058 3057 3056 3055 3055 3054 3053 3051 3050 3048 3046 3044 3042 3042 3043 3044 3044 3042 3039 3038 3038 3039 3041 3042 3041 3038 3032 3030 3035 3042 3046 3048 3050 3054 3057 3062 3065 3069 3074 3078 3082 3084 3084 3086 3088 3089 3090 3092 3093 3094 3094 3095 3096 3097 3098 3099 3100 3100 3101 3101 3100 3099 3099 3099 3098 3097 3096
3055 3055 3056 3056 3057 3057 3057 3057 3057 3056 3056 3055 3055 3055 3055 3055 3054 3054 3053 3052 3051 3051 3050 3048 3047 3045 3043 3042 3040 3036 3034 3032 3032 3033 3032 3030 3027 3026 3025 3025 3026 3027 3026 3024 3022 3019 3022 3029 3033 3035 3038 3043 3047 3052 3058 3064 3069 3073 3076 3079 3080 3081 3083 3085 3086 3087 3089 3090 3091 3091 3093 3094 3094 3095 3096 3096 3096 3096 3096 3095 3094 3094 3094 3093 3092
3051 3051 3052 3052 3052 3052 3052 3052 3052 3051 3051 3051 3050 3050 3050 3050 3049 3049 3048 3047 3046 3046 3045 3044 3042 3040 3038 3036 3034 3030 3027 3026 3024 3023 3021 3016 3013 3012 3010 3008 3007 3007 3006 3008 3009 3008 3011 3018 3023 3025 3028 3032 3038 3045 3051 3057 3062 3066 3069 3072 3074 3076 3078 3080 3081 3084 3086 3087 3087 3088 3089 3090 3091 3091 3091 3091 3091 3092 3091 3090 3090 3090 3090 3089 3089
3047 3048 3048 3048 3048 3048 3048 3048 3048 3047 3047 3046 3046 3046 3046 3045 3044 3043 3043 3042 3041 3041 3040 3039 3037 3035 3033 3030 3027 3023 3021 3019 3016 3013 3009 3004 3000 2996 2992 2988 2988 2987 2988 2991 2993 2995 3000 3009 3014 3016 3019 3024 3030 3038 3044 3049 3056 3061 3063 3064 3067 3070 3074 3076 3078 3080 3082 3083 3084 3085 3086 3087 3087 3087 3087 3087 3087 3087 3087 3087 3086 3087 3086 3086 3086
3044 3044 3045 3045 3045 3045 3045 3044 3043 3043 3042 3042 3041 3041 3041 3040 3040 3039 3037 3037 3036 3035 3034 3033 3031 3030 3027 3023 3018 3016 3014 3011 3006 3002 2997 2991 2986 2980 2974 2971 2970 2969 2971 2975 2975 2977 2986 2997 3003 3007 3013 3019 3024 3031 3036 3042 3049 3054 3056 3058 3061 3065 3069 3072 3073 3076 3078 3079 3080 3082 3083 3083 3083 3083 3083 3083 3083 3083 3083 3083 3083 3083 3083 3083 3083
3041 3041 3041 3042 3042 3042 3041 3041 3040 3039 3039 3038 3038 3038 3037 3036 3035 3034 3033 3032 3031 3030 3029 3027 3025 3023 3020 3015 3011 3007 3004 3001 2997 2992 2985 2976 2969 2963 2959 2955 2952 2953 2959 2963 2962 2966 2978 2989 2993 2998 3008 3015 3019 3023 3028 3034 3041 3046 3050 3054 3058 3061 3064 3067 3069 3071 3073 3075 3077 3078 3079 3079 3079 3079 3079 3078 3079 3079 3079 3079 3079 3079 3080 3079 3079
3038 3038 3038 3038 3038 3038 3038 3038 3037 3037 3036 3035 3035 3034 3033 3033 3032 3030 3029 3028 3027 3026 3024 3022 3020 3017 3013 3009 3004 3000 2996 2991 2986 2981 2974 2965 2956 2948 2943 2939 2938 2943 2952 2956 2957 2962 2974 2983 2987 2995 3005 3011 3013 3017 3024 3030 3036 3041 3045 3050 3053 3056 3060 3063 3065 3067 3069 3071 3072 3074 3074 3074 3075 3075 3075 3075 3074 3074 3075 3075 3075 3076 3076 3076 3076
3036 3037 3037 3037 3036 3036 3036 3035 3035 3034 3033 3033 3032 3031 3030 3029 3028 3027 3025 3024 3023 3022 3020 3018 3015 3013 3009 3005 3001 2996 2991 2985 2979 2973 2968 2960 2951 2944 2938 2935 2936 2941 2945 2947 2953 2961 2971 2979 2986 2994 3001 3005 3007 3013 3021 3028 3032 3037 3042 3045 3049 3052 3056 3059 3062 3063 3065 3066 3068 3069 3070 3070 3071 3071 3071 3071 3070 3070 3071 3072 3072 3072 3073 3073 3073
3035 3035 3035 3035 3035 3034 3034 3034 3033 3032 3031 3030 3029 3028 3027 3026 3025 3024 3023 3021 3020 3019 3017 3014 3011 3009 3006 3003 2999 2996 2991 2986 2978 2973 2969 2962 2954 2946 2939 2934 2937 2942 2942 2943 2951 2962 2970 2976 2983 2989 2995 3001 3005 3011 3018 3024 3029 3034 3039 3041 3044 3048 3051 3055 3058 3059 3061 3062 3064 3065 3065 3066 3066 3066 3066 3066 3066 3067 3067 3068 3068 3069 3069 3069 3069
3033 3033 3032 3032 3032 3032 3032 3031 3031 3030 3029 3027 3027 3025 3024 3024 3022 3021 3020 3018 3017 3016 3014 3011 3008 3006 3003 3001 2998 2995 2992 2988 2981 2976 2973 2968 2961 2956 2948 2941 2943 2949 2949 2948 2954 2962 2967 2973 2981 2987 2993 3000 3006 3012 3017 3022 3027 3032 3035 3038 3040 3044 3048 3051 3054 3056 3057 3059 3060 3061 3061 3062 3062 3062 3062 3062 3063 3063 3063 3064 3065 3065 3066 3066 3066
3030 3030 3030 3029 3029 3029 3029 3028 3028 3027 3026 3025 3024 3023 3022 3021 3020 3018 3017 3015 3013 3012 3011 3009 3006 3004 3001 2999 2996 2994 2992 2989 2983 2978 2975 2972 2967 2965 2963 2961 2962 2965 2966 2964 2966 2968 2971 2977 2984 2990 2996 3002 3008 3013 3018 3022 3026 3029 3032 3035 3038 3041 3045 3048 3051 3053 3054 3055 3056 3057 3057 3057 3058 3058 3058 3058 3059 3059 3060 3061 3061 3062 3062 3062 3063
3027 3027 3027 3026 3026 3026 3026 3025 3024 3024 3023 3022 3021 3020 3019 3018 3017 3016 3014 3013 3011 3010 3008 3007 3005 3003 3000 2997 2994 2992 2991 2989 2985 2980 2977 2974 2971 2968 2969 2971 2973 2977 2979 2979 2979 2980 2981 2985 2989 2994 2998 3003 3008 3013 3017 3021 3024 3027 3030 3033 3036 3040 3043 3045 3048 3049 3051 3052 3052 3053 3053 3053 3053 3053 3053 3054 3055 3056 3056 3057 3058 3058 3058 3059 3059
3024 3024 3024 3023 3023 3023 3022 3022 3021 3021 3020 3019 3018 3017 3016 3015 3014 3013 3012 3011 3009 3008 3006 3004 3004 3002 2999 2996 2994 2992 2990 2988 2985 2982 2979 2977 2974 2972 2972 2973 2976 2979 2982 2984 2985 2987 2989 2991 2994 2997 3000 3003 3007 3011 3015 3019 3022 3025 3029 3032 3035 3038 3040 3043 3045 3046 3047 3048 3049 3049 3049 3049 3049 3049 3049 3050 3051 3052 3052 3053 3054 3054 3055 3055 3056
3021 3021 3021 3020 3020 3019 3019 3018 3018 3017 3016 3015 3015 3014 3013 3012 3011 3009 3008 3008 3007 3005 3004 3003 3002 3001 2999 2996 2993 2992 2990 2988 2986 2984 2981 2978 2977 2976 2976 2976 2978 2981 2984 2986 2988 2990 2991 2993 2996 2998 3001 3004 3007 3010 3014 3018 3021 3024 3027 3030 3033 3035 3038 3040 3042 3043 3044 3044 3045 3045 3045 3045 3045 3045 3045 3046 3047 3048 3049 3049 3050 3051 3052 3052 3053
3018 3017 3017 3017 3017 3016 3016 3015 3014 3013 3013 3012 3011 3011 3010 3008 3007 3006 3005 3005 3004 3003 3002 3001 3000 2999 2998 2996 2993 2992 2990 2989 2987 2985 2983 2981 2980 2980 2980 2981 2983 2985 2986 2988 2990 2991 2992 2994 2997 3000 3002 3005 3008 3010 3013 3017 3020 3023 3025 3028 3031 3033 3036 3037 3039 3040 3041 3041 3041 3041 3041 3041 3041 3041 3042 3043 3044 3045 3045 3046 3047 3047 3048 3049 3049
3015 3015 3015 3015 3015 3014 3013 3012 3011 3010 3009 3008 3008 3007 3006 3005 3004 3003 3002 3002 3001 3001 3000 2999 2998 2997 2996 2995 2993 2992 2990 2989 2988 2987 2985 2983 2983 2983 2984 2984 2986 2987 2988 2989 2991 2992 2994 2996 2998 3001 3003 3006 3008 3011 3014 3017 3019 3022 3024 3027 3029 3031 3034 3035 3036 3037 3037 3037 3037 3036 3036 3037 3037 3038 3039 3040 3041 3041 3042 3042 3043 3044 3045 3045 3046
3013 3014 3014 3013 3013 3012 3011 3010 3008 3007 3006 3005 3005 3004 3004 3003 3002 3001 3000 3000 2999 2999 2998 2997 2995 2994 2994 2993 2993 2992 2990 2988 2987 2987 2986 2985 2985 2985 2986 2987 2988 2989 2990 2992 2993 2994 2996 2998 3000 3002 3004 3007 3009 3011 3014 3016 3019 3021 3023 3026 3028 3029 3031 3032 3033 3033 3033 3032 3032 3032 3032 3032 3033 3034 3035 3036 3037 3037 3038 3039 3039 3040 3041 3042 3043
3012 3012 3012 3012 3012 3011 3009 3008 3006 3005 3004 3003 3003 3002 3001 3001 3000 2999 2999 2998 2997 2997 2996 2994 2993 2992 2992 2991 2991 2991 2989 2988 2987 2987 2987 2987 2987 2987 2988 2989 2990 2991 2992 2993 2995 2997 2999 3001 3002 3004 3006 3008 3010 3012 3014 3016 3018 3020 3022 3024 3026 3027 3028 3028 3028 3028 3028 3028 3027 3027 3028 3028 3029 3030 3031 3032 3033 3034 3034 3035 3036 3037 3038 3039 3039
3011 3011 3011 3010 3010 3009 3008 3006 3005 3003 3002 3002 3001 3000 3000 2999 2998 2998 2997 2996 2995 2995 2994 2993 2992 2991 2990 2989 2989 2989 2989 2987 2987 2987 2987 2987 2988 2988 2989 2991 2992 2993 2994 2996 2997 2999 3001 3002 3003 3005 3006 3008 3010 3012 3013 3015 3017 3019 3020 3022 3023 3023 3024 3024 3024 3023 3023 3023 3023 3023 3024 3025 3026 3027 3028 3029 3030 3030 3031 3032 3033 3034 3035 3035 3036